Regional Weather Roundup
Issued by NWS Newport/Morehead, NC

Current Version | Previous Version | Graphics & Text | Print | Product List | Glossary Off
Versions: 1 2 3 4 5 6 7 8 9 10 11 12 13 14 15 16 17 18 19 20 21 22 23 24 25 26 27 28 29 30 31 32 33 34 35 36 37 38 39 40 41 42 43 44 45 46 47 48 49 50

794
ASUS42 KMHX 211824
RWRMHX
WEATHER ROUNDUP FOR EASTERN NORTH CAROLINA
NATIONAL WEATHER SERVICE NEWPORT/MOREHEAD CITY NC
200 PM EDT THU MAY 21 2015

NOTE: "FAIR" INDICATES FEW OR NO CLOUDS BELOW 12,000 FEET
WITH NO SIGNIFICANT WEATHER AND/OR OBSTRUCTIONS TO VISIBILITY

NCZ015>017-031-032-045>047-102-103-211900-
NORTH COAST

CITY           SKY/WX    TMP DP  RH WIND       PRES   REMARKS
EDENTON        CLOUDY    78  70  76 S12       29.80F
ELIZABETH CITY PTSUNNY   73  64  73 SE16G24   29.84F
KITTY HAWK     CLOUDY    72  64  77 SE9G17    29.83F
MANTEO         CLOUDY    76  66  70 S20G26    29.83F

$$

NCZ045>047-081-094-103-104-211900-
CENTRAL COAST

CITY           SKY/WX    TMP DP  RH WIND       PRES   REMARKS
FRISCO         CLOUDY    76  68  76 SE16      29.85F
SWANQUARTER      N/A     81 N/A N/A S16G24    29.77F

$$

NCZ095-097-098-100-101-211900-
SOUTHERN COAST

CITY           SKY/WX    TMP DP  RH WIND       PRES   REMARKS
BEAUFORT       MOSUNNY   79  74  84 S13       29.82F
CEDAR ISLAND     N/A     79 N/A N/A SE14      29.85F
JACKSONVILLE   MOSUNNY   84  71  65 S12       29.78F
PINEY ISLAND   CLOUDY   N/A N/A N/A S12G21    29.82F
WILMINGTON     MOSUNNY   85  72  65 S10       29.79F


$$

NCZ011>013-027>030-043-044-078>080-089-090>093-098-211900-
COASTAL PLAIN

CITY           SKY/WX    TMP DP  RH WIND       PRES   REMARKS
AHOSKIE        CLOUDY    74  66  75 CALM      29.80F
CLINTON        MOSUNNY   86  73  64 S3        29.76F
ELIZABETHTOWN  MOSUNNY   87  69  55 S7        29.76F
GOLDSBORO      PTSUNNY   83  70  64 S7        29.74F
GREENVILLE     MOSUNNY   84  70  61 S12       29.80F
HAVELOCK       PTSUNNY   81  70  69 S8G17     29.81F
KENANSVILLE    PTSUNNY   84  67  58 S3        29.78F
KINSTON        MOSUNNY   86  68  54 S8        29.78F
NEW BERN       PTSUNNY   84  70  62 S8        29.80F
RICHLANDS      PTSUNNY   88  70  55 S10G17    29.77F
ROCKY MOUNT    PTSUNNY   81  69  67 CALM      29.78F
WASHINGTON     MOSUNNY   81  70  68 SE6       29.78F
WHITEVILLE     MOSUNNY   86  72  63 SE7       29.77F

$$

AMZ130-135-150-152-154-156-158-170-250-252-270-ANZ085-086-088-633-658-670-211900-
MARINE OBSERVATIONS

STATION/POSITION TIME  TEMP    WIND        PRES    WAVE   SWELL
                       AIR SEA DIR/SP/G            HT/PER HT/PER
                 (UTC) (F)     (DEG/KT/KT) (MB)    (FT/S) (FT/S)
CHESAPEAKE LIGHT 1800   64     110/ 25/ 27 1010.2
64 E VA BEACH    1750   65 62  110/ 14/ 16 1011.1    3/ 9   2/ 9
DUCK             1800   68 68  110/ 16/ 19 1009.2
2 E DUCK         1711      68                N/A     4/ 9
OREGON INLET     1800   75 69  120/ 10/ 17 1010.1
13E OREGON INLT  1800      66                N/A     3/ 5
HATTERAS CG      1800   75 72  120/ 12/ 16 1009.8
DIAMOND BUOY     1750   75 77  140/ 17/ 21 1010.8    5/ 5   2/ 8
CAPE LOOKOUT     1800   75     160/  9/ 10 1009.6
BEAUFORT LAB     1800   77 74  180/ 10/ 11 1008.9
27 SE WRIGHTSVLE 1800   75 78  190/ 12/ 14   N/A
5 SE WRIGHTSVLE  1708   77 77  200/ 12/ 16 1009.9
225 S CAPE HAT   1750   75 75  210/ 12/ 14 1014.0    3/ 5   2/ 9
41 SE CHARLESTON 1750   76 76  220/ 16/ 17 1009.8    3/ 5   2/ 8

$$



USA.gov is the U.S. government's official web portal to all federal, state and local government web resources and services.